User: anonymous   Login
Location: Macksville High School
(37.9611°N, 99.9654°W)
Time: 02:14:28
(UTC+00:00)
Language:

Cosmos 468 Rocket - Orbit

View from above orbital plane
View from above orbital plane
View from above satellite
View from above satellite

Ground track
Ground track

The orbit data is extracted from the following two-line orbital elements,

1  5707U 71114B   21106.79482319  .00000043  00000-0  22345-4 0  9993
2  5707  74.0299  23.7411 0023757 109.7251 250.6469 14.38937226584092
Epoch (UTC): 16 April 2021 19:04:32
Eccentricity: 0.0023757
inclination: 74.0299°
perigee height: 745 km
apogee height: 779 km
right ascension of ascending node: 23.7411°
argument of perigee: 109.7251°
revolutions per day: 14.38937226
mean anomaly at epoch: 250.6469°
orbit number at epoch: 58409

The dashed part of the orbit path shows where the satellite is in the earth's shadow,  

DLR